星链-1598 (STARLINK-1598 )

导读 | 豆包AI

STARLINK-1598是美国太空探索技术公司星链星座中的一颗卫星,于2020年8月18日发射升空,属于星链项目的组网卫星之一,主要为全球提供低延迟、宽带互联网卫星服务,该卫星运行在近地轨道,是SpaceX大规模卫星互联网组网进程中发射的卫星。

基本信息
目录编号:
46160
目录名称:
STARLINK-1598
国际标识:
2020-057AV
轨道中心:
EARTH
卫星名称:
星链-1598
卫星全名:
星链-1598 (STARLINK-1598 )
卫星状态:
在轨 (已飞行2055 天)
发射日期:
2020-08-18 UTC
国别 :
美国 (US)
星等 :
--
轨道信息
数据来源 国际轨道数据
星历时间: 2026-04-04T04:00:02+0800
8小时前
查看轨道信息
半长轴: 6775.779km
偏心率: 0.0007324
轨道倾角: 53.048°
近地点辐角 352.539°
升交点赤经 162.271°
平近点角 142.190°
近地点: 392.679km
远地点: 402.605km
周期: 92.512分钟
每日圈数: 15.565532
详细信息
固有亮度:
5
最大亮度:
2.5
卫星平台:
Starlink V1.0
覆盖范围:
全球
运营商:
太空探索技术公司
运营商所在国:
美国
制造商(研发单位):
太空探索技术公司
制造商所在国:
美国
使用方式:
暂无
卫星简介
星链(Starlink)计划是由太空探索技术公司(SpaceX)提出的一个巨型低轨卫星互联网星座项目,计划在2019年至2024年间在太空搭建由约1.2万颗卫星组成的“星链”网络,其中1584颗将部署在地球上空550千米处的近地轨道,并从2020年开始工作。该卫星仍在工作。
2D轨道图
3D轨道图
轨道高度分析图
轨道倾角分析图
轨道综合分析图
查看轨道综合分析图